DW5948 Weather Reports


time (UTC)temp
C
wind
direction
speed
KPH
gust
KPH
rain 1hr
cm
rain 24hr
cm
rain mn
cm
humidity
%
barometer
mb
20260504190032 27 120 6.4 16.1 0.00 0.00 0.00 59 1013.4
20260504184533 27 161 1.6 14.5 0.00 0.00 0.00 60 1013.7
20260504183039 28 141 6.4 12.9 0.00 0.00 0.00 58 1013.8
20260504181528 27 202 6.4 20.9 0.00 0.00 0.00 58 1013.9
20260504180024 27 110 3.2 16.1 0.00 0.00 0.00 59 1014.0
20260504174522 27 120 3.2 11.3 0.00 0.00 0.00 60 1014.5
20260504173018 26 108 1.6 12.9 0.00 0.00 0.00 61 1014.5
20260504171515 26 154 6.4 16.1 0.00 0.00 0.00 63 1014.9
20260504081502 14 110 0.0 0.0 0.00 0.00 0.00 85 1016.3
20260504044540 16 139 0.0 0.0 0.00 0.00 0.00 74 1018.4
20260504043033 16 139 0.0 0.0 0.00 0.00 0.00 74 1018.5
20260504041532 17 139 0.0 0.0 0.00 0.00 0.00 73 1018.6
20260504040032 17 139 0.0 3.2 0.00 0.00 0.00 73 1018.5
20260504034551 18 169 0.0 3.2 0.00 0.00 0.00 69 1018.4
20260504033031 18 132 0.0 3.2 0.00 0.00 0.00 65 1018.6
20260504031531 19 153 0.0 3.2 0.00 0.00 0.00 64 1018.3
20260504030040 19 134 1.6 6.4 0.00 0.00 0.00 63 1018.3
20260504024529 20 122 1.6 8.0 0.00 0.00 0.00 61 1018.2
20260504023028 20 186 1.6 8.0 0.00 0.00 0.00 60 1018.1
20260504021527 20 176 0.0 8.0 0.00 0.00 0.00 58 1018.0
20260504020027 21 139 3.2 8.0 0.00 0.00 0.00 57 1017.9
20260504014536 21 144 1.6 9.7 0.00 0.00 0.00 55 1017.7
20260504013026 21 176 1.6 11.3 0.00 0.00 0.00 54 1017.7
20260504011525 22 124 4.8 11.3 0.00 0.00 0.00 53 1017.8
20260504010028 22 155 1.6 6.4 0.00 0.00 0.00 53 1017.6
20260504004524 22 158 1.6 9.7 0.00 0.00 0.00 52 1017.6
20260504003030 23 150 0.0 9.7 0.00 0.00 0.00 51 1017.7
20260504001522 23 160 3.2 11.3 0.00 0.00 0.00 49 1017.6
20260504000023 24 151 4.8 11.3 0.00 0.00 0.00 48 1017.6
20260503234535 25 126 4.8 11.3 0.00 0.00 0.00 46 1017.7
20260503233021 25 168 3.2 12.9 0.00 0.00 0.00 43 1017.6
20260503231518 26 124 1.6 11.3 0.00 0.00 0.00 39 1017.9
20260503230022 26 126 1.6 6.4 0.00 0.00 0.00 39 1017.8
20260503224516 27 156 3.2 14.5 0.00 0.00 0.00 36 1018.1
20260503223017 26 176 1.6 9.7 0.00 0.00 0.00 37 1018.2
20260503221513 26 179 4.8 11.3 0.00 0.00 0.00 38 1018.4
20260503220013 27 136 1.6 9.7 0.00 0.00 0.00 40 1018.5
20260503214513 27 126 3.2 9.7 0.00 0.00 0.00 37 1018.5
20260503213009 27 72 0.0 9.7 0.00 0.00 0.00 39 1018.9
20260503211507 27 129 1.6 11.3 0.00 0.00 0.00 35 1019.1
20260503210006 27 140 1.6 8.0 0.00 0.00 0.00 38 1019.3
20260503204504 27 276 4.8 9.7 0.00 0.00 0.00 37 1019.4
20260503203002 27 123 3.2 11.3 0.00 0.00 0.00 36 1019.7
20260503201605 27 112 0.0 9.7 0.00 0.00 0.00 40 1019.8
20260503200101 27 186 1.6 8.0 0.00 0.00 0.00 41 1020.3
20260503194553 27 314 3.2 11.3 0.00 0.00 0.00 38 1020.4
20260503193055 27 131 1.6 6.4 0.00 0.00 0.00 44 1020.7
20260503191556 27 141 3.2 9.7 0.00 0.00 0.00 43 1020.9